Starlink 11262

operational
NORAD ID: 62009 Int'l Des: 2024-213 Owner: SPXS Country: US Constellation: starlink
LEOCIRCULAR

关于 Starlink 11262

正在加载描述...

实时位置

正在加载3D地球...

即将过境

高度历史

Altitude vs Time

uPlot chart will show altitude changes over time

两行轨道根数

1 62009U 24213B 25260.20543845 .00166880 00000-0 13520-2 0 9997
2 62009 53.1576 176.7650 0001657 81.9208 278.1998 15.69758354 47665
Epoch: Sep 17, 2025 • Age: 20 hours

当前状态

高度 359.8 km
速度 7.70 km/s
星下点 30.60°N, 172.81°W
发射日期 Nov 18, 2024
运行时间 0.8 years
类型 internet

技术详情

分类 Payload
质量 960.00 kg
干质量 910.00 kg
总质量 960.00 kg
长度 0.30 m
直径 4.10 m
跨度 29.00 m
形状 Box + pan
制造商 SPXS
平台类型 Starlink V2MD
阶段状态 In Orbit
所有者/国家 SPXS/US

大型星座

Loading constellations...